This is the latest recevied weather packets stored in our database for station/object K1JO. If no packets are shown the sender has not sent any weather packets the latest 10 day(s).
| Time | Temp. | Humidity | Pressure | Rain* | Wind** | Luminosity | Snow |
|---|---|---|---|---|---|---|---|
| 1777634590 | 7.78° C | 99% | 1002.1 hPa | 0 mm | - | 113 W/m² | - |
| 1777634287 | 7.22° C | 99% | 1002 hPa | 0 mm | - | 113 W/m² | - |
| 1777633983 | 7.22° C | 99% | 1002 hPa | 0 mm | - | 65 W/m² | - |
| 1777633679 | 7.22° C | 99% | 1002.2 hPa | 1.78 mm | - | 55 W/m² | - |
| 1777633378 | 7.22° C | 99% | 1002.2 hPa | 1.78 mm | - | 58 W/m² | - |
| 1777633075 | 7.22° C | 99% | 1002.1 hPa | 0 mm | - | 48 W/m² | - |
| 1777632771 | 7.22° C | 99% | 1002.1 hPa | 0 mm | - | 50 W/m² | - |
| 1777632467 | 7.22° C | 99% | 1001.8 hPa | 0 mm | - | 55 W/m² | - |
| 1777632164 | 7.22° C | 99% | 1001.7 hPa | 0 mm | - | 49 W/m² | - |
| 1777631861 | 7.22° C | 99% | 1001.7 hPa | 0 mm | - | 46 W/m² | - |
| 1777631561 | 7.22° C | 99% | 1001.6 hPa | 0 mm | - | 33 W/m² | - |
| 1777631257 | 7.78° C | 99% | 1001.7 hPa | 0 mm | - | 26 W/m² | - |
| 1777630954 | 7.78° C | 99% | 1001.5 hPa | 0 mm | - | 27 W/m² | - |
| 1777630649 | 7.22° C | 99% | 1001.4 hPa | 0 mm | - | 35 W/m² | - |
| 1777630347 | 7.22° C | 99% | 1001.4 hPa | 0 mm | - | 30 W/m² | - |
| 1777630045 | 7.78° C | 99% | 1001.2 hPa | 0 mm | - | 22 W/m² | - |
| 1777629742 | 7.78° C | 99% | 1001.2 hPa | 0 mm | - | 19 W/m² | - |
| 1777629433 | 7.78° C | 99% | 1001 hPa | 0 mm | - | 16 W/m² | - |
| 1777629129 | 7.78° C | 99% | 1000.9 hPa | 0 mm | - | 9 W/m² | - |
| 1777628825 | 7.78° C | 99% | 1001 hPa | 0 mm | - | 7 W/m² | - |
| 1777628522 | 7.78° C | 99% | 1000.7 hPa | 0 mm | - | 4 W/m² | - |
| 1777628218 | 7.78° C | 99% | 1000.8 hPa | 0 mm | - | 4 W/m² | - |
| 1777627913 | 7.78° C | 99% | 1000.8 hPa | 0 mm | - | 3 W/m² | - |
| 1777627608 | 7.78° C | 99% | 1000.8 hPa | 0 mm | - | 2 W/m² | - |
| 1777627307 | 7.78° C | 99% | 1000.8 hPa | 0 mm | - | 1 W/m² | - |
* Rain latest hour (hover to see other rain measurements)
** Current wind speed in m/s (hover to see current wind gust speed)